• Em Portugal
  • Lista de países
  • Para 7 dias
  • Temperatura da água
  • Mapas de satélite
  • Mapa do tempo
  • Widgets de tempo
  • user-avatar
    Iniciar Sessão

    Previsão horária em Chertovaya

    Hoje, 23 Outubro, Terça-feira

    Tempo Temperatura Precipitação Vento Pressão Humidade
    00:00 +3°C° 0 mm 2 m/s 742 mmHg 83%
    01:00 +2°C° 0 mm 2 m/s 742 mmHg 84%
    02:00 +1°C° 0 mm 3 m/s 741 mmHg 83%
    03:00 +1°C° 0 mm 3 m/s 740 mmHg 83%
    04:00 +1°C° 0 mm 3 m/s 740 mmHg 82%
    05:00 +1°C° 0 mm 3 m/s 739 mmHg 82%
    06:00 +1°C° 0 mm 3 m/s 739 mmHg 81%
    07:00 +1°C° 0 mm 4 m/s 738 mmHg 79%
    08:00 +1°C° 0 mm 4 m/s 738 mmHg 78%
    09:00 +3°C° 0 mm 4 m/s 737 mmHg 76%
    10:00 +5°C° 0 mm 5 m/s 737 mmHg 73%
    11:00 +6°C° 0 mm 5 m/s 736 mmHg 71%
    12:00 +6°C° 0.1 mm 5 m/s 736 mmHg 73%
    13:00 +6°C° 0.1 mm 5 m/s 735 mmHg 75%
    14:00 +6°C° 0.1 mm 5 m/s 734 mmHg 77%
    15:00 +5°C° 0.1 mm 5 m/s 734 mmHg 79%
    16:00 +5°C° 0.1 mm 4 m/s 733 mmHg 81%
    17:00 +5°C° 0.1 mm 4 m/s 733 mmHg 84%
    18:00 +5°C° 0 mm 4 m/s 732 mmHg 83%
    19:00 +5°C° 0 mm 4 m/s 731 mmHg 82%
    20:00 +4°C° 0 mm 4 m/s 731 mmHg 82%
    21:00 +4°C° 0.2 mm 4 m/s 730 mmHg 82%
    22:00 +4°C° 0.2 mm 4 m/s 729 mmHg 82%
    23:00 +4°C° 0.2 mm 4 m/s 728 mmHg 83%

    Amanhã, 24 Outubro, Quarta-feira

    Tempo Temperatura Precipitação Vento Pressão Humidade
    00:00 +3°C° 0.3 mm 5 m/s 727 mmHg 82%
    01:00 +3°C° 0.3 mm 5 m/s 726 mmHg 81%
    02:00 +3°C° 0.3 mm 6 m/s 725 mmHg 80%
    03:00 +3°C° 0.3 mm 6 m/s 724 mmHg 81%
    04:00 +3°C° 0.3 mm 6 m/s 723 mmHg 82%
    05:00 +3°C° 0.3 mm 6 m/s 722 mmHg 83%
    06:00 +3°C° 0.6 mm 6 m/s 721 mmHg 84%
    07:00 +4°C° 0.6 mm 6 m/s 720 mmHg 85%
    08:00 +4°C° 0.6 mm 7 m/s 719 mmHg 86%
    09:00 +5°C° 0.4 mm 6 m/s 719 mmHg 85%
    10:00 +5°C° 0.4 mm 6 m/s 718 mmHg 84%
    11:00 +5°C° 0.4 mm 6 m/s 718 mmHg 84%
    12:00 +7°C° 0.2 mm 6 m/s 718 mmHg 80%
    13:00 +7°C° 0.2 mm 6 m/s 718 mmHg 76%
    14:00 +7°C° 0.2 mm 6 m/s 717 mmHg 73%
    15:00 +7°C° 0.2 mm 5 m/s 718 mmHg 76%
    16:00 +6°C° 0.2 mm 5 m/s 718 mmHg 80%
    17:00 +5°C° 0.2 mm 4 m/s 718 mmHg 84%
    18:00 +5°C° 0 mm 4 m/s 718 mmHg 85%
    19:00 +4°C° 0 mm 4 m/s 719 mmHg 86%
    20:00 +4°C° 0 mm 3 m/s 719 mmHg 87%
    21:00 +3°C° 0 mm 3 m/s 719 mmHg 89%
    22:00 +2°C° 0 mm 3 m/s 719 mmHg 91%
    23:00 +2°C° 0 mm 3 m/s 720 mmHg 92%

    Depois de amanhã, 25 Outubro, Quinta-feira

    Tempo Temperatura Precipitação Vento Pressão Humidade
    00:00 +2°C° 0 mm 3 m/s 720 mmHg 93%
    01:00 +1°C° 0 mm 3 m/s 720 mmHg 93%
    02:00 +1°C° 0 mm 3 m/s 720 mmHg 93%
    03:00 +1°C° 0 mm 3 m/s 720 mmHg 93%
    04:00 0°C° 0 mm 4 m/s 720 mmHg 93%
    05:00 0°C° 0 mm 4 m/s 720 mmHg 93%
    06:00 0°C° 0.2 mm 5 m/s 720 mmHg 91%
    07:00 +1°C° 0.2 mm 5 m/s 720 mmHg 89%
    08:00 +1°C° 0.2 mm 6 m/s 721 mmHg 88%
    09:00 +2°C° 0.4 mm 6 m/s 721 mmHg 86%
    10:00 +2°C° 0.4 mm 6 m/s 721 mmHg 84%
    11:00 +3°C° 0.4 mm 6 m/s 721 mmHg 82%
    12:00 +3°C° 0.3 mm 6 m/s 722 mmHg 81%
    13:00 +3°C° 0.3 mm 6 m/s 722 mmHg 79%
    14:00 +3°C° 0.3 mm 5 m/s 723 mmHg 77%
    15:00 +3°C° 0.1 mm 5 m/s 723 mmHg 78%
    16:00 +2°C° 0.1 mm 5 m/s 724 mmHg 80%
    17:00 +3°C° 0.1 mm 4 m/s 724 mmHg 81%
    18:00 +1°C° 0.1 mm 4 m/s 725 mmHg 81%
    19:00 +1°C° 0.1 mm 4 m/s 725 mmHg 82%
    20:00 +1°C° 0.1 mm 4 m/s 726 mmHg 83%
    21:00 +1°C° 0.1 mm 3 m/s 726 mmHg 84%
    22:00 +1°C° 0.1 mm 3 m/s 726 mmHg 84%
    23:00 +1°C° 0.1 mm 3 m/s 727 mmHg 85%

    26 Outubro, Sexta-feira

    Tempo Temperatura Precipitação Vento Pressão Humidade
    00:00 +1°C° 0 mm 3 m/s 727 mmHg 86%
    01:00 +1°C° 0 mm 3 m/s 727 mmHg 86%
    02:00 +1°C° 0 mm 3 m/s 728 mmHg 86%
    03:00 +1°C° 0 mm 3 m/s 728 mmHg 87%
    04:00 +1°C° 0 mm 3 m/s 728 mmHg 87%
    05:00 +2°C° 0 mm 2 m/s 729 mmHg 88%
    06:00 +1°C° 0 mm 3 m/s 729 mmHg 88%
    07:00 +1°C° 0 mm 3 m/s 730 mmHg 88%
    08:00 +1°C° 0 mm 3 m/s 730 mmHg 87%
    09:00 +1°C° 0 mm 4 m/s 730 mmHg 82%
    10:00 +3°C° 0 mm 4 m/s 731 mmHg 76%
    11:00 +4°C° 0 mm 4 m/s 731 mmHg 71%
    12:00 +4°C° 0.1 mm 4 m/s 731 mmHg 70%
    13:00 +3°C° 0.1 mm 5 m/s 731 mmHg 69%
    14:00 +5°C° 0.1 mm 5 m/s 731 mmHg 68%
    15:00 +4°C° 0.2 mm 4 m/s 732 mmHg 73%
    16:00 +3°C° 0.2 mm 4 m/s 732 mmHg 77%
    17:00 +2°C° 0.2 mm 3 m/s 732 mmHg 82%
    18:00 +2°C° 0.1 mm 3 m/s 733 mmHg 84%
    19:00 +2°C° 0.1 mm 3 m/s 733 mmHg 86%
    20:00 +2°C° 0.1 mm 3 m/s 734 mmHg 89%
    21:00 +1°C° 0 mm 3 m/s 734 mmHg 90%
    22:00 0°C° 0 mm 3 m/s 735 mmHg 92%
    23:00 0°C° 0 mm 3 m/s 735 mmHg 94%

    27 Outubro, Sábado

    Tempo Temperatura Precipitação Vento Pressão Humidade
    00:00 0°C° 0 mm 3 m/s 736 mmHg 94%
    01:00 -1°C° 0 mm 3 m/s 736 mmHg 94%
    02:00 -1°C° 0 mm 3 m/s 737 mmHg 93%
    03:00 -1°C° 0 mm 3 m/s 737 mmHg 94%
    04:00 -1°C° 0 mm 3 m/s 737 mmHg 94%
    05:00 -1°C° 0 mm 3 m/s 738 mmHg 94%
    06:00 -1°C° 0 mm 4 m/s 738 mmHg 92%
    07:00 -1°C° 0 mm 4 m/s 738 mmHg 90%
    08:00 0°C° 0 mm 5 m/s 738 mmHg 88%
    09:00 +1°C° 0 mm 5 m/s 737 mmHg 83%
    10:00 +3°C° 0 mm 6 m/s 737 mmHg 78%
    11:00 +4°C° 0 mm 6 m/s 737 mmHg 73%
    12:00 +4°C° 0 mm 7 m/s 736 mmHg 75%
    13:00 +5°C° 0 mm 7 m/s 736 mmHg 76%
    14:00 +5°C° 0 mm 7 m/s 735 mmHg 77%
    15:00 +5°C° 0.1 mm 7 m/s 734 mmHg 77%
    16:00 +6°C° 0.1 mm 7 m/s 734 mmHg 77%
    17:00 +6°C° 0.1 mm 7 m/s 733 mmHg 77%
    18:00 +6°C° 0.1 mm 7 m/s 733 mmHg 77%
    19:00 +6°C° 0.1 mm 7 m/s 733 mmHg 77%
    20:00 +8°C° 0.1 mm 7 m/s 733 mmHg 77%
    21:00 +7°C° 0.1 mm 6 m/s 733 mmHg 80%
    22:00 +7°C° 0.1 mm 6 m/s 733 mmHg 83%
    23:00 +7°C° 0.1 mm 5 m/s 733 mmHg 85%

    28 Outubro, Domingo

    Tempo Temperatura Precipitação Vento Pressão Humidade
    00:00 +6°C° 0 mm 5 m/s 734 mmHg 86%
    01:00 +6°C° 0 mm 5 m/s 734 mmHg 88%
    02:00 +5°C° 0 mm 4 m/s 735 mmHg 89%
    03:00 +5°C° 0 mm 4 m/s 735 mmHg 88%
    04:00 +5°C° 0 mm 4 m/s 736 mmHg 87%
    05:00 +4°C° 0 mm 4 m/s 736 mmHg 87%
    06:00 +4°C° 0 mm 4 m/s 737 mmHg 86%
    07:00 +4°C° 0 mm 4 m/s 737 mmHg 85%
    08:00 +4°C° 0 mm 4 m/s 738 mmHg 84%
    09:00 +4°C° 0 mm 3 m/s 739 mmHg 80%
    10:00 +5°C° 0 mm 3 m/s 739 mmHg 76%
    11:00 +5°C° 0 mm 3 m/s 740 mmHg 72%
    12:00 +6°C° 0 mm 2 m/s 741 mmHg 70%
    13:00 +6°C° 0 mm 2 m/s 741 mmHg 69%
    14:00 +7°C° 0 mm 1 m/s 741 mmHg 67%
    15:00 +7°C° 0.1 mm 1 m/s 742 mmHg 69%
    16:00 +6°C° 0.1 mm 1 m/s 742 mmHg 72%
    17:00 +6°C° 0.1 mm 1 m/s 742 mmHg 74%
    18:00 +6°C° 0.2 mm 1 m/s 743 mmHg 75%
    19:00 +5°C° 0.2 mm 2 m/s 743 mmHg 76%
    20:00 +4°C° 0.2 mm 2 m/s 743 mmHg 77%
    21:00 +4°C° 0.1 mm 2 m/s 743 mmHg 78%
    22:00 +3°C° 0.1 mm 3 m/s 743 mmHg 79%
    23:00 +3°C° 0.1 mm 3 m/s 743 mmHg 80%

    29 Outubro, Segunda-feira

    Tempo Temperatura Precipitação Vento Pressão Humidade
    00:00 +3°C° 0.1 mm 3 m/s 743 mmHg 81%
    01:00 +3°C° 0.1 mm 4 m/s 743 mmHg 82%
    02:00 +3°C° 0.1 mm 4 m/s 743 mmHg 83%
    03:00 +2°C° 0.2 mm 5 m/s 743 mmHg 84%
    04:00 +2°C° 0.2 mm 5 m/s 743 mmHg 84%
    05:00 +2°C° 0.2 mm 5 m/s 742 mmHg 85%
    06:00 +3°C° 0.2 mm 5 m/s 742 mmHg 87%
    07:00 +3°C° 0.2 mm 5 m/s 742 mmHg 88%
    08:00 +3°C° 0.2 mm 5 m/s 742 mmHg 89%
    09:00 +5°C° 0 mm 4 m/s 742 mmHg 90%
    10:00 +6°C° 0 mm 4 m/s 742 mmHg 90%
    11:00 +7°C° 0 mm 4 m/s 742 mmHg 91%
    12:00 +7°C° 0 mm 4 m/s 741 mmHg 92%
    13:00 +8°C° 0 mm 4 m/s 741 mmHg 92%
    14:00 +10°C° 0 mm 4 m/s 741 mmHg 93%
    15:00 +10°C° 0 mm 4 m/s 741 mmHg 94%
    16:00 +10°C° 0 mm 4 m/s 741 mmHg 94%
    17:00 +11°C° 0 mm 3 m/s 740 mmHg 95%
    18:00 +10°C° 0 mm 4 m/s 740 mmHg 93%
    19:00 +10°C° 0 mm 4 m/s 740 mmHg 90%
    20:00 +10°C° 0 mm 4 m/s 740 mmHg 88%
    21:00 +10°C° 0 mm 4 m/s 740 mmHg 85%
    22:00 +10°C° 0 mm 4 m/s 740 mmHg 82%
    23:00 +8°C° 0 mm 4 m/s 741 mmHg 79%
    Mostrar mais